Vani

Georgia     42˚05′03″N   42˚31′01″E
temp.,
°C
wind,
m/s
gust,
m/s
humid.,
%
clouds,
%
prec.,
mm/h
press.,
hPa
HPBL,
m
1 december, tue
tue101:00+6˚sse335874 0.0 102134
04:00+6˚sse335637 0.0 102137
07:00+6˚sse33550 0.0 102140
10:00+8˚se22550 0.0 102183
13:00+11˚ne12560 0.0 1020263
16:00+11˚ene12620 0.0 1019200
19:00+7˚sse33600 0.0 102236
22:00+7˚sse335437 0.0 102337
2 december, wed
wed201:00+7˚sse3352100 0.0 102437
04:00+7˚sse3350100 0.0 102532
07:00+6˚sse2351100 0.0 102529
10:00+9˚se115671 0.0 102541
13:00+12˚nne11510 0.0 1023302
16:00+11˚nnw11610 0.0 1022164
19:00+8˚sse23670 0.0 102427
22:00+7˚sse22600 0.0 102527
3 december, thu
thu301:00+7˚sse23600 0.0 102631
04:00+7˚sse22595 0.0 102629
07:00+6˚sse22580 0.0 102628
10:00+9˚ese11600 0.0 102653
13:00+12˚nne21560 0.0 1024276
16:00+11˚ne11630 0.0 1023146
19:00+8˚sse33660 0.0 102533
22:00+7˚sse33580 0.0 102637
4 december, fri
fri401:00+7˚sse33580 0.0 102637
04:00+7˚sse33560 0.0 102539
07:00+6˚sse33550 0.0 102444
10:00+9˚se23540 0.0 102477
13:00+12˚ne22520 0.0 1022276
16:00+12˚e22578 0.0 1021212
19:00+7˚sse335728 0.0 102248
22:00+7˚sse335218 0.0 102348
5 december, sat
sat501:00+7˚sse33500 0.0 102342
04:00+7˚sse33510 0.0 102337
07:00+7˚sse33520 0.0 102233
10:00+9˚se22530 0.0 102258
13:00+12˚nne11500 0.0 1020251
16:00+11˚nne10550 0.0 1020222
19:00+8˚sse23580 0.0 102228
22:00+7˚sse33550 0.0 102231